Regional Weather Roundup
Issued by NWS

Home | Current Version | Previous Version | Text Only | Print | Product List | Glossary On
Versions: 1 2 3 4 5 6 7 8 9 10 11 12 13 14 15 16 17 18 19 20 21 22 23 24 25 26 27 28 29 30 31 32 33 34 35 36 37 38 39 40 41 42 43 44 45 46 47 48 49 50
000
ASUS46 KSEW 250210
RWRWA

WASHINGTON REGIONAL WEATHER ROUNDUP
NATIONAL WEATHER SERVICE SEATTLE WA
700 PM PDT SUN JUL 24 2016

NOTE:"FAIR" INDICATES FEW OR NO CLOUDS BELOW 12,000 FEET WITH NO
SIGNIFICANT WEATHER AND/OR OBSTRUCTIONS TO VISIBILITY.

WAZ505-507>509-250300-
SEATTLE, TACOMA, EVERETT, AND VICINITY

CITY           SKY/WX    TMP DP  RH WIND       PRES   REMARKS
EVERETT        SUNNY     72  53  51 N7        30.04F
BOEING FIELD   SUNNY     78  52  40 NW8       30.00F
RENTON         SUNNY     79  57  46 NW13      30.00F
SEATAC AIRPORT SUNNY     79  57  46 N12       30.03F
JBLM-MCCHORD   SUNNY     79  53  40 N9        30.01F
PUYALLUP       FAIR      79  55  44 VRB5      30.02F
BREMERTON      SUNNY     77  52  41 N9        30.05F
JBLM-FT LEWIS  SUNNY     80  55  40 N6        30.01F
TACOMA NARROWS SUNNY     76  50  40 N10       30.02F
$$

WAZ001-503-506-510-514-515-250300-
NORTH INTERIOR

CITY           SKY/WX    TMP DP  RH WIND       PRES   REMARKS
BELLINGHAM     SUNNY     76  53  44 W6        30.02F
FRIDAY HARBOR  SUNNY     72  52  49 SW6       30.04F
EASTSOUND      SUNNY     72  54  53 N3        30.01F
PORT ANGELES   SUNNY     67  54  63 NW9       30.06F
EDIZ HOOK      FAIR      60  54  80 W22       30.05S
PORT TOWNSEND  FAIR      70  55  60 N8        30.04S
NAS WHIDBEY    MOSUNNY   63  52  67 VRB3      30.08F
ARLINGTON      SUNNY     75  54  46 NW13      30.03F
BURLINGTON     SUNNY     75  54  46 W7        30.02F
$$

WAZ020-022-039-040-504-511-512-250300-
SOUTHWEST INTERIOR

CITY           SKY/WX    TMP DP  RH WIND       PRES   REMARKS
SHELTON        SUNNY     82  54  37 SE8       29.98F
OLYMPIA        SUNNY     80  52  37 N8        30.01F
CHEHALIS       FAIR      82  55  39 VRB6G13   30.00S
KELSO          SUNNY     81  61  50 W13       29.97S
VANCOUVER      SUNNY     85  54  34 NW10G18   29.92F
SCAPPOOSE, OR  SUNNY     85  55  35 NW9       29.93S
PORTLAND, OR   SUNNY     86  54  33 NW13      29.93S
$$

WAZ021-516-517-250300-
WASHINGTON COAST

CITY           SKY/WX    TMP DP  RH WIND       PRES   REMARKS
FORKS          SUNNY     66  56  70 NW12      30.07F
HOQUIAM        SUNNY     70  59  68 W9        30.03F
ASTORIA, OR    SUNNY     67  58  72 NW21      30.02F
$$

WAZ019-023-024-040-518-519-250300-
CASCADE MOUNTAINS AND COLUMBIA GORGE

CITY           SKY/WX    TMP DP  RH WIND       PRES   REMARKS
STAMPEDE PASS  SUNNY     68  51  54 VRB7      30.14F
TROUTDALE, OR  SUNNY     86  56  35 W6        29.91F
THE DALLES, OR SUNNY     94  36  13 W5        29.86F
$$

WAZ026-027-041>044-520-521-250300-
EAST SLOPES

CITY           SKY/WX    TMP DP  RH WIND       PRES   REMARKS
OMAK           SUNNY     89  44  20 SW6       29.92F
WENATCHEE      SUNNY     86  52  30 E7        29.92F
ELLENSBURG     LGT RAIN  90  45  21 VRB3      29.96F
YAKIMA         SUNNY     92  47  21 NW5       29.93F
$$

WAZ028-034-035-250300-
COLUMBIA BASIN

CITY           SKY/WX    TMP DP  RH WIND       PRES   REMARKS
EPHRATA        SUNNY     87  48  25 SW8       29.94F
MOSES LAKE     SUNNY     88  41  19 SE3       29.95F
PASCO          SUNNY     89  51  27 NW6       29.90F
HERMISTON, OR  SUNNY     92  43  18 N7        29.90F
$$

WAZ036>038-250300-
NORTHEAST WASHINGTON

CITY           SKY/WX    TMP DP  RH WIND       PRES   REMARKS
SPOKANE GEIGER SUNNY     85  43  22 NE3       30.00F
SPOKANE FELTS  SUNNY     86  45  23 CALM      29.99F
FAIRCHILD AFB  SUNNY     84  45  25 NW5       30.01F
COEURDALENE,ID SUNNY     82  48  30 SW5       29.97F
DEER PARK      SUNNY     83  44  25 S5        30.00F
$$

WAZ029>033-250300-
SOUTHEAST WASHINGTON

CITY           SKY/WX    TMP DP  RH WIND       PRES   REMARKS
PULLMAN        SUNNY     82  43  25 CALM      30.03S
LEWISTON, ID   SUNNY     91  40  16 NW3       29.93F
WALLA WALLA    SUNNY     88  47  24 SW9       29.93S
PENDLETON, OR  SUNNY     88  38  17 NW13      29.94F
$$



USA.gov is the U.S. government's official web portal to all federal, state and local government web resources and services.